Flag for Sweden Weather past 2 weeks in Malmö, Sweden

Now
48 °F

Fog.


Feels Like: 46 °F
Forecast: 51 / 56 °F
Wind: 6 mph from West

Location: Malmo / Sturup

Current Time: Oct 21, 2014 at 6:04:46 AM

Latest Report: Oct 21, 2014 at 5:20 AM


Visibility: 6 mi

Pressure: 29.68 "Hg

Humidity: 100%

Dew point: 48 °F

Location of MalmöLocation

Historic Weather in Malmö — Graph

°F

Malmö temperature yesterday

Maximum temperature yesterday: 59 °F (at 1:50 PM)
Minimum temperature yesterday: 50 °F (at 9:50 PM)
Average temperature yesterday: 55 °F

Past Weeks' High & Low Weather Summary

 TemperatureHumidityPressure
High63 °F (Oct 9, 1:20 PM)100% (Oct 7, 5:20 PM)30.21 "Hg (Oct 7, 5:20 PM)
Low41 °F (Oct 13, 12:50 AM)67% (Oct 6, 9:20 AM)29.59 "Hg (Oct 7, 5:50 PM)
Average54 °F91%29.84 "Hg
* Reported Oct 6 4:20 AM — Oct 21 4:50 AM, Malmö, Weather by CustomWeather, © 2014

Note: Actual official high and low records may vary slightly from our data, if they occured in-between our weather recording intervals... More about our weather records

Advertising

Malmö weather history for previous 24 hours

 ConditionsComfort  
Time TempWeatherWind HumidityBarometerVisibility
4:50 AM
Oct 21
48 °FFog.7 mph100%29.68 "Hg5 mi
4:20 AM48 °FFog.7 mph100%29.68 "Hg5 mi
3:50 AM48 °FFog.6 mph100%29.68 "Hg4 mi
3:20 AM46 °FFog.5 mph93%29.71 "Hg4 mi
2:50 AM46 °FFog.5 mph100%29.71 "Hg4 mi
2:20 AM48 °FFog.2 mph100%29.71 "Hg3 mi
1:50 AM48 °FFog.5 mph100%29.71 "Hg3 mi
1:20 AM46 °FFog.5 mph93%29.71 "Hg4 mi
12:50 AM50 °FFog.8 mph88%29.71 "Hg5 mi
12:20 AM50 °FClear.7 mph94%29.71 "Hg10 mi
11:50 PM
Oct 20
50 °FClear.7 mph94%29.71 "Hg10 mi
11:20 PM50 °FClear.8 mph88%29.71 "Hg10 mi
10:50 PM50 °FClear.8 mph88%29.71 "Hg10 mi
10:20 PM50 °FClear.8 mph88%29.71 "Hg10 mi
9:50 PM50 °FClear.9 mph82%29.71 "Hg10 mi
9:20 PM52 °FClear.10 mph82%29.71 "Hg10 mi
8:50 PM52 °FClear.12 mph82%29.71 "Hg10 mi
8:20 PM52 °FClear.13 mph82%29.71 "Hg10 mi
7:50 PM54 °FPassing clouds.12 mph77%29.71 "HgN/A
7:20 PM54 °FPartly cloudy.15 mph77%29.71 "HgN/A
6:50 PM55 °FBroken clouds.13 mph67%29.71 "HgN/A
6:20 PM55 °FBroken clouds.16 mph72%29.71 "HgN/A
5:50 PM55 °FBroken clouds.16 mph72%29.68 "HgN/A
5:20 PM55 °FFog.16 mph72%29.68 "Hg6 mi
4:50 PM55 °FMostly cloudy.18 mph77%29.68 "HgN/A
4:20 PM55 °FBroken clouds.16 mph72%29.68 "HgN/A
3:50 PM55 °FBroken clouds.17 mph72%29.68 "HgN/A
3:20 PM55 °FBroken clouds.20 mph72%29.68 "HgN/A
2:50 PM57 °FScattered clouds.21 mph72%29.68 "HgN/A
2:20 PM57 °FPartly sunny.20 mph72%29.68 "HgN/A
1:50 PM59 °FBroken clouds.20 mph68%29.65 "HgN/A
1:20 PM57 °FScattered clouds.18 mph72%29.65 "HgN/A
12:50 PM57 °FPartly sunny.21 mph72%29.68 "HgN/A
12:20 PM57 °FBroken clouds.18 mph77%29.68 "HgN/A
11:50 AM57 °FPartly sunny.20 mph77%29.65 "HgN/A
11:20 AM55 °FPartly sunny.20 mph82%29.65 "HgN/A
10:50 AM55 °FMostly cloudy.16 mph88%29.65 "HgN/A
10:20 AM55 °FPartly sunny.20 mph88%29.65 "HgN/A
9:50 AM55 °FMostly cloudy.20 mph88%29.62 "HgN/A
9:20 AM55 °FBroken clouds.16 mph88%29.62 "HgN/A
8:50 AM55 °FScattered clouds.15 mph88%29.62 "HgN/A
8:20 AM55 °FOvercast.18 mph94%29.62 "HgN/A
7:50 AM55 °FPartly cloudy.15 mph94%29.59 "HgN/A
7:20 AM55 °FPassing clouds.16 mph94%29.59 "HgN/A
6:50 AM55 °FOvercast.14 mph94%29.62 "HgN/A
Weather by CustomWeather, © 2014

See weather overviewHow to use our weather pages